When you browse on this site, cookies collect data to enhance your experience and personalize the content and advertising you see.
Visit our Privacy Policy to learn more. By continuing to use the site, you agree to this use of cookies and data.
  • In Hungary
  • List of Countries
  • For 7 days
  • Water Temperature
  • Satellite Maps
  • Weather Map
  • News
  • Weather Widgets
  • user-avatar
    Login

    Hourly Weather Piotrków Trybunalski

    Today, 27 June, Thursday

    Time Temperature Precipitation Wind Pressure Humidity
    00:00 +26°C° 1.4 mm 4 mps 744 mmHg 83%
    01:00 +24°C° 1.4 mm 3 mps 744 mmHg 89%
    02:00 +22°C° 0.5 mm 4 mps 744 mmHg 90%
    03:00 +21°C° 0.5 mm 4 mps 744 mmHg 91%
    04:00 +20°C° 0.5 mm 4 mps 744 mmHg 93%
    05:00 +20°C° 0 mm 5 mps 745 mmHg 88%
    06:00 +21°C° 0 mm 6 mps 745 mmHg 84%
    07:00 +21°C° 0 mm 6 mps 745 mmHg 80%
    08:00 +21°C° 0 mm 7 mps 745 mmHg 77%
    09:00 +21°C° 0 mm 7 mps 745 mmHg 73%
    10:00 +20°C° 0 mm 7 mps 745 mmHg 69%
    11:00 +21°C° 0 mm 7 mps 746 mmHg 65%
    12:00 +22°C° 0 mm 7 mps 746 mmHg 61%
    13:00 +23°C° 0 mm 7 mps 746 mmHg 57%
    14:00 +23°C° 0 mm 7 mps 745 mmHg 58%
    15:00 +23°C° 0 mm 7 mps 745 mmHg 59%
    16:00 +22°C° 0 mm 7 mps 745 mmHg 59%
    17:00 +22°C° 0 mm 6 mps 745 mmHg 63%
    18:00 +21°C° 0 mm 5 mps 745 mmHg 67%
    19:00 +20°C° 0 mm 4 mps 745 mmHg 72%
    20:00 +19°C° 0 mm 4 mps 745 mmHg 76%
    21:00 +18°C° 0 mm 4 mps 745 mmHg 80%
    22:00 +15°C° 0 mm 4 mps 746 mmHg 84%
    23:00 +15°C° 0 mm 4 mps 746 mmHg 88%

    Tomorrow, 28 June, Friday

    Time Temperature Precipitation Wind Pressure Humidity
    00:00 +14°C° 0 mm 3 mps 746 mmHg 91%
    01:00 +13°C° 0 mm 3 mps 747 mmHg 94%
    02:00 +13°C° 0 mm 3 mps 747 mmHg 95%
    03:00 +13°C° 0 mm 2 mps 747 mmHg 95%
    04:00 +13°C° 0 mm 2 mps 747 mmHg 96%
    05:00 +13°C° 0 mm 3 mps 747 mmHg 86%
    06:00 +16°C° 0 mm 3 mps 747 mmHg 76%
    07:00 +17°C° 0 mm 3 mps 748 mmHg 65%
    08:00 +18°C° 0 mm 4 mps 747 mmHg 60%
    09:00 +20°C° 0 mm 4 mps 747 mmHg 55%
    10:00 +21°C° 0 mm 5 mps 747 mmHg 50%
    11:00 +21°C° 0 mm 5 mps 747 mmHg 50%
    12:00 +22°C° 0 mm 5 mps 747 mmHg 50%
    13:00 +22°C° 0 mm 5 mps 747 mmHg 51%
    14:00 +22°C° 0.2 mm 5 mps 746 mmHg 54%
    15:00 +22°C° 0.2 mm 4 mps 746 mmHg 57%
    16:00 +22°C° 0.2 mm 4 mps 746 mmHg 61%
    17:00 +21°C° 0.1 mm 4 mps 746 mmHg 64%
    18:00 +20°C° 0.1 mm 3 mps 746 mmHg 67%
    19:00 +19°C° 0.1 mm 3 mps 747 mmHg 71%
    20:00 +18°C° 0 mm 3 mps 747 mmHg 69%
    21:00 +16°C° 0 mm 3 mps 747 mmHg 68%
    22:00 +13°C° 0 mm 3 mps 747 mmHg 67%
    23:00 +13°C° 0 mm 3 mps 748 mmHg 67%

    Day after tomorrow, 29 June, Saturday

    Time Temperature Precipitation Wind Pressure Humidity
    00:00 +12°C° 0 mm 3 mps 748 mmHg 67%
    01:00 +12°C° 0 mm 3 mps 748 mmHg 67%
    02:00 +12°C° 0 mm 2 mps 748 mmHg 69%
    03:00 +12°C° 0 mm 2 mps 748 mmHg 70%
    04:00 +12°C° 0 mm 2 mps 748 mmHg 72%
    05:00 +14°C° 0 mm 2 mps 748 mmHg 66%
    06:00 +16°C° 0 mm 1 mps 748 mmHg 60%
    07:00 +19°C° 0 mm 1 mps 748 mmHg 54%
    08:00 +19°C° 0 mm 2 mps 748 mmHg 51%
    09:00 +21°C° 0 mm 2 mps 748 mmHg 48%
    10:00 +22°C° 0 mm 3 mps 748 mmHg 44%
    11:00 +24°C° 0 mm 3 mps 748 mmHg 44%
    12:00 +25°C° 0 mm 4 mps 747 mmHg 43%
    13:00 +25°C° 0 mm 4 mps 747 mmHg 42%
    14:00 +26°C° 0 mm 4 mps 747 mmHg 42%
    15:00 +26°C° 0 mm 4 mps 746 mmHg 42%
    16:00 +26°C° 0 mm 4 mps 746 mmHg 42%
    17:00 +25°C° 0 mm 4 mps 746 mmHg 48%
    18:00 +24°C° 0 mm 3 mps 746 mmHg 55%
    19:00 +21°C° 0 mm 2 mps 746 mmHg 61%
    20:00 +20°C° 0 mm 2 mps 746 mmHg 61%
    21:00 +19°C° 0 mm 2 mps 746 mmHg 62%
    22:00 +18°C° 0 mm 2 mps 746 mmHg 62%
    23:00 +18°C° 0 mm 2 mps 746 mmHg 62%

    30 June, Sunday

    Time Temperature Precipitation Wind Pressure Humidity
    00:00 +17°C° 0 mm 2 mps 746 mmHg 63%
    01:00 +17°C° 0 mm 3 mps 746 mmHg 63%
    02:00 +17°C° 0 mm 2 mps 746 mmHg 67%
    03:00 +16°C° 0 mm 2 mps 745 mmHg 72%
    04:00 +16°C° 0 mm 2 mps 745 mmHg 76%
    05:00 +18°C° 0 mm 2 mps 746 mmHg 72%
    06:00 +20°C° 0 mm 3 mps 746 mmHg 69%
    07:00 +22°C° 0 mm 3 mps 746 mmHg 65%
    08:00 +25°C° 0 mm 3 mps 746 mmHg 59%
    09:00 +26°C° 0 mm 3 mps 746 mmHg 53%
    10:00 +28°C° 0 mm 3 mps 746 mmHg 47%
    11:00 +29°C° 0 mm 3 mps 745 mmHg 44%
    12:00 +31°C° 0 mm 3 mps 745 mmHg 41%
    13:00 +33°C° 0 mm 3 mps 745 mmHg 38%
    14:00 +33°C° 0 mm 4 mps 744 mmHg 39%
    15:00 +33°C° 0 mm 4 mps 744 mmHg 39%
    16:00 +33°C° 0 mm 4 mps 744 mmHg 40%
    17:00 +30°C° 0 mm 4 mps 744 mmHg 46%
    18:00 +28°C° 0 mm 4 mps 743 mmHg 52%
    19:00 +27°C° 0 mm 4 mps 743 mmHg 58%
    20:00 +26°C° 0 mm 4 mps 743 mmHg 58%
    21:00 +25°C° 0 mm 5 mps 743 mmHg 58%
    22:00 +23°C° 0 mm 5 mps 743 mmHg 58%
    23:00 +22°C° 0 mm 5 mps 743 mmHg 62%

    1 July, Monday

    Time Temperature Precipitation Wind Pressure Humidity
    00:00 +22°C° 0 mm 6 mps 743 mmHg 65%
    01:00 +22°C° 0 mm 6 mps 742 mmHg 69%
    02:00 +22°C° 0 mm 5 mps 742 mmHg 71%
    03:00 +21°C° 0 mm 5 mps 742 mmHg 73%
    04:00 +21°C° 0 mm 5 mps 742 mmHg 74%
    05:00 +22°C° 0 mm 5 mps 742 mmHg 73%
    06:00 +23°C° 0 mm 5 mps 742 mmHg 71%
    07:00 +25°C° 0 mm 5 mps 742 mmHg 70%
    08:00 +27°C° 0 mm 5 mps 742 mmHg 65%
    09:00 +28°C° 0 mm 5 mps 742 mmHg 61%
    10:00 +30°C° 0 mm 5 mps 742 mmHg 57%
    11:00 +30°C° 0.5 mm 5 mps 742 mmHg 59%
    12:00 +30°C° 0.5 mm 5 mps 742 mmHg 61%
    13:00 +30°C° 0.5 mm 5 mps 741 mmHg 63%
    14:00 +29°C° 0.9 mm 5 mps 741 mmHg 61%
    15:00 +29°C° 0.9 mm 5 mps 741 mmHg 59%
    16:00 +29°C° 0.9 mm 5 mps 741 mmHg 58%
    17:00 +27°C° 0 mm 4 mps 741 mmHg 60%
    18:00 +26°C° 0 mm 3 mps 741 mmHg 62%
    19:00 +25°C° 0 mm 2 mps 741 mmHg 65%
    20:00 +23°C° 0 mm 1 mps 741 mmHg 66%
    21:00 +22°C° 0 mm 1 mps 741 mmHg 68%
    22:00 +20°C° 0 mm 1 mps 741 mmHg 69%
    23:00 +20°C° 0 mm 1 mps 741 mmHg 72%

    2 July, Tuesday

    Time Temperature Precipitation Wind Pressure Humidity
    00:00 +18°C° 0 mm 0 mps 741 mmHg 74%
    01:00 +17°C° 0 mm 0 mps 741 mmHg 77%
    02:00 +19°C° 0 mm 1 mps 742 mmHg 76%
    03:00 +18°C° 0 mm 2 mps 742 mmHg 76%
    04:00 +17°C° 0 mm 3 mps 742 mmHg 75%
    05:00 +18°C° 0 mm 4 mps 742 mmHg 74%
    06:00 +19°C° 0 mm 5 mps 742 mmHg 73%
    07:00 +20°C° 0 mm 6 mps 742 mmHg 71%
    08:00 +20°C° 0 mm 6 mps 743 mmHg 64%
    09:00 +21°C° 0 mm 7 mps 743 mmHg 57%
    10:00 +22°C° 0 mm 7 mps 743 mmHg 50%
    11:00 +22°C° 0 mm 7 mps 743 mmHg 49%
    12:00 +22°C° 0 mm 7 mps 743 mmHg 47%
    13:00 +23°C° 0 mm 7 mps 743 mmHg 45%
    14:00 +22°C° 0 mm 7 mps 743 mmHg 48%
    15:00 +22°C° 0 mm 7 mps 743 mmHg 50%
    16:00 +22°C° 0 mm 6 mps 743 mmHg 52%
    17:00 +21°C° 0 mm 6 mps 743 mmHg 57%
    18:00 +20°C° 0 mm 5 mps 743 mmHg 62%
    19:00 +19°C° 0 mm 4 mps 743 mmHg 66%
    20:00 +17°C° 0 mm 4 mps 744 mmHg 70%
    21:00 +16°C° 0 mm 3 mps 744 mmHg 73%
    22:00 +14°C° 0 mm 3 mps 745 mmHg 76%
    23:00 +13°C° 0 mm 3 mps 745 mmHg 76%
    Show more